Showing default

BEIJING 3B, 53587

Orbit data source: Space-Track

BEIJING 3B, 53587 is a payload satellite owned by 21AT (CN) in SSO that was launched on Wed, 24 Aug 2022 UTC via a CHANG ZHENG 2D launch vehicle from the Taiyaun Space Center, China (TSC). Payload-class satellites include a variety of spacecraft equipped with specific instruments for various scientific and technological missions. These include communications satellites like Starlink; space stations such as the ISS; scientific satellites like the Hubble; Earth observation satellites from companies like Planet Labs, Umbra, and HawkEye 360; GPS; miniature CubeSats for education and research; and military/defense satellites.

Loading next visibility...
Identifier
53587, 2022-103A
Orbit
SSO
Country
Flag of CNCN / PRC
Related business
Manufacturer
DFH
Mission
Operational Commercial Imaging
Bus & Motor
BJ3B, Unknown motor
Mass
~4,000 kg wet, ~4,000 kg dry
Launch date (UTC)
2022-08-24 (4 years ago)
Launch vehicle
CHANG ZHENG 2D
Launch site
Taiyaun Space Center, China (TSC)
Object type
Payload
Rocket body
Debris
Shape & HBR
Hex Cyl + 3 Pan, 4.0 m
Radar Cross Section
10.645 m², Large (>1 m²)

Expand to show TLE details & history
Last TLE update: 22 hours ago

TLE from 22 hours ago
0 BEIJING 3B
1 53587U 22103A   26172.52251450  .00000782  00000-0  92520-4 0  9997
2 53587  97.8012 249.8608 0025727  42.7326 317.5885 14.87199858207737
Epoch: 2026-06-21T12:32Z
TLE epoch observation values (Epoch: 2026-06-21T12:32:25.252Z)
Latitude
-0°
Longitude
152.03401°
Altitude
596.474 km
Speed
7.569 km/s
True Right ascension
16h 39m 26s
True Declination
0° 00' 00"
Sunlit
Object was in full shadow at epoch
Visualization orbit readout
Latitude
Unknown
Longitude
Unknown
Altitude
Unknown
Speed
Unknown
Apparent Right ascension
Unknown
Apparent Declination
Unknown
Sunlit
N/A
Visualization observer readout
Local Sidereal Time
21:28:14
Azimuth
Unknown
Elevation
Unknown
Doppler factor
Unknown
Orbital elements
Apogee altitude
621.678 km
Perigee altitude
585.754 km
Semi-major axis
6,981.853 km
Eccentricity
0.00257
Inclination
97.8012°
RAAN
249.8608°
Arg. of periapsis
42.7326°
True anomaly
317.38919°
Mean anomaly
317.5885°
Eccentric anomaly
317.48889°
Mean motion
3.72038 °/min
Orbital period
96.76 mins
BSTAR
0.00009252
Loading maneuver chart data...
Computing Atmospheric mass density...
Loading historical data...
Loading historical data...
Loading historical data...
Loading historical data...
Loading historical data...
Loading historical data...
Loading historical data...
Other satellites on launch #103 in the year 2022 (2022-08-24 UTC)

Documentation

Showing up to 5 results
|